SCP
0 0 0 0 0 0 0 0 0 0 0 0 0 0 0 0 0 0 0 0 0 0 0 0 0 0 0 0 0 0 0 0 0 0 0 0 0 0
0 0 0 0 0 0 -0 0 0 0 0 0 0 0 0 0 0 0 0 0 0 0 0 0 0 0 0 0 0 0 0 0 0 0 0 0 0 0
0 0 0 0 0 0 0 -0 -0 0 0 0 0 0 0 0 0 0 0 0 0 0 0 0 0 0 0 0 0 0 0 0 0 0 0 0 0 0
0 0 0 0 0 0 0 0 0 0 0 0 0 0 0 0 0 0 0 0 0 0 0 0 0 0 0 0 0 0 0 0 0 0 0 0 0 0
0 0 0 0 -0 0 0 0 0 0 0 0 0 0 0 0 0 0 0 0 0 0 0 0 0 0 0 0 0 0 0 0 0 0 0 0 0 0
0 0 0 0 -0 0 0 0 0 0 0 0 0 0 0 0 0 0 0 0 0 0 0 0 0 0 0 0 0 0 0 0 0 0 0 0 0 0
0 0 0 0 0 0 0 0 0 0 0 0 0 0 0 0 0 0 0 0 0 0 0 0 0 0 0 0 0 0 0 0 0 0 0 0 0 0
0 0 0 0 0 0 0 0 0 0 0 0 0 0 0 0 0 0 0 0 0 0 0 0 0 0 0 0 0 0 0 0 0 0 0 0 0 0
0 0 0 0 0 0 0 0 0 0 0 0 0 0 0 0 0 0 0 0 0 0 0 0 0 0 0 0 0 0 0 0 0 0 0 0 0 0
-0 -0 -0 0 0 0 0 0 0 0 0 0 0 0 0 0 0 0 0 0 0 0 0 0 0 0 0 0 0 0 0 0 0 0 0 0 0 0
0 0 0 0 0 0 0 0 0 0 0 0 0 0 0 0 0 0 0 0 0 0 0 0 0 0 0 0 0 0 0 0 0 0 0 0 0 0
0 -0 -0 0 -0 0 0 0 0 0 0 0 0 0 0 0 0 0 0 0 0 0 0 0 0 0 0 0 0 0 0 0 0 0 0 0 0 0
-0 -0 0 0 0 0 0 0 0 0 0 0 0 0 0 0 0 0 0 0 0 0 0 0 0 0 0 0 0 0 0 0 0 0 0 0 0 0
-0 -0 0 0 0 0 0 0 0 0 0 0 0 0 0 0 0 0 0 0 0 0 0 0 0 0 0 0 0 0 0 0 0 0 0 0 0 0
0 0 0 0 0 0 0 0 0 0 0 0 0 0 0 0 0 0 0 0 0 0 0 0 0 0 0 0 0 0 0 0 0 0 0 0 0 0
0 0 0 0 0 0 0 0 0 0 0 0 0 0 0 0 0 0 0 0 0 0 0 0 0 0 0 0 0 0 0 0 0 0 0 0 0 0
0 0 0 0 0 0 0 0 0 0 0 0 0 0 0 0 0 0 0 0 0 0 0 0 0 0 0 0 0 0 0 0 0 0 0 0 0 0
0 0 0 0 0 0 0 0 0 0 0 0 0 0 0 0 0 0 0 0 0 0 0 0 0 0 0 0 0 0 0 0 0 0 0 0 0 0
0 0 0 0 0 0 0 0 0 0 0 0 0 0 0 0 0 0 0 0 0 0 0 0 0 0 0 0 0 0 0 0 0 0 0 0 0 0
0 0 0 0 0 0 0 0 0 0 0 0 0 0 0 0 0 0 0 0 0 0 0 0 0 0 0 0 0 0 0 0 0 0 0 0 0 0
0 0 0 0 0 0 0 0 0 0 0 0 0 0 0 0 0 0 0 0 0 0 0 0 0 0 0 0 0 0 0 0 0 0 0 0 0 0
0 0 0 0 0 0 0 0 0 0 0 0 0 0 0 0 0 0 0 0 0 0 0 0 0 0 0 0 0 0 0 0 0 0 0 0 0 0
0 0 0 0 0 0 0 0 0 0 0 0 0 0 0 0 0 0 0 0 0 0 0 0 0 0 0 0 0 0 0 0 0 0 0 0 0 0
Wind_Speed_500mb
39 27 20 19 24 25 38 22 21 31 53 52 47 58 52 57 63 58 58 59 57 59 49 49 67 62 76 59 60 71 61 36 36 44 47 50 51 55
42 47 46 38 25 21 16 31 13 20 36 42 48 55 54 55 59 56 50 54 59 55 50 58 60 65 63 44 34 35 40 45 46 44 46 50 51 49
35 37 41 46 43 45 17 29 32 17 20 37 43 46 52 54 57 57 53 50 50 49 51 53 57 53 44 42 48 49 45 45 46 47 49 48 49 47
29 32 33 28 29 31 31 26 33 24 23 22 31 43 52 52 61 61 58 52 52 53 52 52 54 56 55 47 45 42 40 39 40 41 37 38 40 43
29 32 32 30 29 31 35 26 20 30 39 33 42 51 56 61 64 60 57 50 51 49 44 43 40 38 38 38 35 36 35 35 33 38 38 41 44 47
32 32 26 29 24 23 26 26 31 38 37 46 43 42 49 48 50 52 50 48 43 40 37 35 33 31 30 29 28 29 30 31 35 39 41 44 48 47
26 24 24 22 20 22 31 34 40 46 41 39 42 41 44 49 51 50 46 38 33 31 27 26 27 25 26 28 30 32 33 37 42 43 44 46 45 48
18 17 11 24 26 27 29 32 29 24 22 30 32 32 36 38 36 35 32 32 28 29 27 28 27 28 26 28 29 32 37 40 41 43 45 47 49 52
28 30 29 26 25 23 19 15 16 23 24 18 15 19 22 22 26 31 31 29 25 17 23 24 23 23 27 28 31 35 38 41 43 43 47 51 52 53
31 29 24 25 27 26 24 23 20 19 17 19 22 21 25 23 24 22 23 24 22 20 20 19 20 24 25 28 33 36 38 38 43 46 50 49 47 48
21 21 21 21 21 19 16 15 15 15 14 14 16 13 18 17 17 18 18 21 23 22 23 24 26 27 25 26 36 38 34 26 29 36 40 41 54 66
16 14 13 12 12 12 13 13 12 13 12 10 8 7 8 13 18 19 23 24 24 17 24 24 24 24 18 26 28 26 25 33 34 38 44 55 61 68
8 7 6 6 5 5 5 6 6 6 6 6 7 10 14 18 22 24 26 27 29 29 23 27 32 32 29 31 35 41 41 42 44 42 48 55 60 62
6 6 6 6 6 6 6 7 7 8 10 11 13 18 18 21 26 30 32 30 32 32 36 38 42 41 43 49 55 52 50 51 56 57 59 57 51 66
14 14 14 15 16 17 18 20 22 22 24 25 26 27 30 34 35 38 37 40 41 44 47 49 51 54 58 64 71 70 68 70 66 62 57 70 72 69
27 28 28 28 28 29 29 31 35 37 39 39 39 39 43 46 50 52 54 54 56 59 58 61 64 67 72 75 79 83 79 79 75 75 80 82 75 68
39 39 39 39 40 41 42 43 45 48 52 52 54 56 57 59 62 63 66 70 74 74 73 72 73 76 80 83 92 93 91 90 82 79 74 80 79 71
49 50 49 49 51 51 51 52 53 56 58 59 62 65 69 71 72 74 75 78 83 82 82 77 82 84 89 97 91 93 85 80 77 75 73 79 81 67
54 57 58 59 60 60 61 62 65 65 64 67 70 72 74 76 79 80 81 83 87 86 86 81 81 82 90 105 91 81 81 78 71 69 67 72 81 73
59 64 69 70 70 71 73 74 76 76 77 76 77 77 78 79 82 84 83 86 87 87 87 83 82 82 88 94 83 67 70 76 75 75 73 71 68 65
64 64 66 68 71 73 76 78 79 80 80 81 83 82 80 77 79 78 78 79 79 82 87 89 85 74 70 71 84 90 82 64 63 67 66 62 63 67
63 65 66 67 68 70 71 73 74 74 71 70 71 72 75 77 79 79 78 76 75 72 75 73 68 66 65 70 79 79 74 62 52 52 50 54 60 47
55 55 56 56 55 55 56 58 60 61 60 61 62 63 64 67 69 72 74 73 74 71 66 64 60 60 61 61 63 64 60 55 49 48 46 46 52 50
Wind_Direction_500mb
227 225 239 261 223 219 249 287 248 206 193 197 197 198 204 207 217 207 215 233 245 229 230 256 220 235 231 238 221 225 232 243 256 263 267 265 264 264
238 239 243 254 252 269 264 267 283 304 217 195 189 196 205 212 225 218 215 218 222 219 235 236 224 227 224 226 236 242 257 265 270 269 266 264 263 263
230 238 241 237 241 255 234 253 259 288 268 215 200 197 207 218 220 224 223 226 231 238 240 236 240 232 237 253 264 269 269 267 267 266 267 263 260 260
224 235 244 232 220 224 221 220 233 251 275 239 203 200 206 210 217 219 221 227 233 234 236 237 241 244 253 259 263 263 264 265 262 261 258 260 263 265
230 240 242 243 234 217 219 225 263 231 247 254 261 230 215 208 214 217 222 225 229 232 241 246 248 250 252 255 255 259 258 252 251 253 256 259 262 263
230 231 245 241 256 241 234 222 243 247 238 227 241 229 222 220 222 223 228 231 234 236 239 244 247 243 245 244 242 242 249 254 258 260 263 262 264 267
212 221 220 211 217 221 220 221 225 231 228 230 225 226 226 225 223 226 224 225 229 229 226 228 235 233 235 242 247 250 257 261 263 265 266 270 272 273
175 181 227 224 196 190 198 195 193 206 206 215 215 221 228 226 219 218 212 201 198 212 210 220 230 237 240 243 250 260 263 266 269 271 273 274 275 275
100 110 108 102 103 113 132 139 164 164 163 170 178 182 191 187 183 185 188 193 196 195 212 226 231 245 255 264 269 270 271 273 274 276 277 277 277 275
90 97 110 115 116 118 121 128 142 135 141 143 141 157 151 159 164 173 190 197 208 219 227 247 249 251 252 258 262 262 262 266 271 274 275 274 268 269
88 93 92 92 91 101 105 107 120 127 143 140 135 136 130 156 179 192 211 222 226 231 233 236 249 252 249 255 262 263 264 264 271 275 274 267 273 281
94 94 101 102 104 109 118 127 137 145 156 156 146 179 186 199 212 219 221 227 241 251 245 243 249 263 276 268 249 234 244 271 272 270 269 275 281 283
98 98 99 109 116 132 146 155 166 170 179 186 200 204 212 216 224 230 238 237 243 247 253 253 260 263 258 261 259 264 274 280 277 275 278 280 284 285
355 351 346 334 324 307 294 288 283 272 255 251 244 239 240 242 242 241 245 250 255 260 261 263 266 273 272 275 274 278 280 279 280 283 284 284 279 287
313 305 299 297 295 293 290 286 283 279 277 275 273 272 270 268 270 272 271 268 267 267 268 273 275 276 276 278 280 285 289 287 287 288 285 288 288 289
303 301 300 298 294 292 290 291 292 291 289 288 287 282 277 275 275 274 274 273 272 272 273 275 277 277 278 279 279 280 283 280 291 291 291 287 286 286
292 291 290 290 289 289 290 290 289 287 287 288 284 282 278 275 273 273 273 273 272 273 274 275 275 276 277 277 275 279 281 283 291 291 285 285 283 285
289 289 289 290 291 292 291 289 285 284 284 283 280 278 277 276 275 273 272 270 271 272 273 273 275 277 277 275 274 279 279 284 290 289 285 283 284 286
287 289 289 291 292 290 288 287 285 285 283 280 280 280 279 278 277 276 275 274 273 273 273 272 270 271 272 273 282 281 284 287 286 283 282 280 284 290
286 288 289 291 290 289 289 289 288 287 286 286 284 283 282 282 282 281 280 279 279 279 278 274 270 268 268 276 280 273 274 280 283 284 283 285 285 286
283 282 282 283 285 288 289 289 290 289 290 290 289 289 288 287 285 283 282 281 282 281 280 280 282 284 278 273 270 274 278 277 275 275 279 281 284 286
280 281 281 281 282 283 284 285 287 289 290 292 293 294 295 295 293 292 292 290 289 287 285 286 284 280 273 269 274 280 283 285 276 271 263 263 269 271
290 290 289 288 287 286 285 285 285 286 286 286 285 281 280 282 284 286 286 286 288 289 291 291 288 283 278 275 276 279 281 284 281 277 271 272 276 277
Wind_Speed_850mb
39 27 20 19 24 25 38 22 21 31 53 52 47 58 52 57 63 58 58 59 57 59 49 49 67 62 76 59 60 71 61 36 36 44 47 50 51 55
42 47 46 38 25 21 16 31 13 20 36 42 48 55 54 55 59 56 50 54 59 55 50 58 60 65 63 44 34 35 40 45 46 44 46 50 51 49
35 37 41 46 43 45 17 29 32 17 20 37 43 46 52 54 57 57 53 50 50 49 51 53 57 53 44 42 48 49 45 45 46 47 49 48 49 47
29 32 33 28 29 31 31 26 33 24 23 22 31 43 52 52 61 61 58 52 52 53 52 52 54 56 55 47 45 42 40 39 40 41 37 38 40 43
29 32 32 30 29 31 35 26 20 30 39 33 42 51 56 61 64 60 57 50 51 49 44 43 40 38 38 38 35 36 35 35 33 38 38 41 44 47
32 32 26 29 24 23 26 26 31 38 37 46 43 42 49 48 50 52 50 48 43 40 37 35 33 31 30 29 28 29 30 31 35 39 41 44 48 47
26 24 24 22 20 22 31 34 40 46 41 39 42 41 44 49 51 50 46 38 33 31 27 26 27 25 26 28 30 32 33 37 42 43 44 46 45 48
18 17 11 24 26 27 29 32 29 24 22 30 32 32 36 38 36 35 32 32 28 29 27 28 27 28 26 28 29 32 37 40 41 43 45 47 49 52
28 30 29 26 25 23 19 15 16 23 24 18 15 19 22 22 26 31 31 29 25 17 23 24 23 23 27 28 31 35 38 41 43 43 47 51 52 53
31 29 24 25 27 26 24 23 20 19 17 19 22 21 25 23 24 22 23 24 22 20 20 19 20 24 25 28 33 36 38 38 43 46 50 49 47 48
21 21 21 21 21 19 16 15 15 15 14 14 16 13 18 17 17 18 18 21 23 22 23 24 26 27 25 26 36 38 34 26 29 36 40 41 54 66
16 14 13 12 12 12 13 13 12 13 12 10 8 7 8 13 18 19 23 24 24 17 24 24 24 24 18 26 28 26 25 33 34 38 44 55 61 68
8 7 6 6 5 5 5 6 6 6 6 6 7 10 14 18 22 24 26 27 29 29 23 27 32 32 29 31 35 41 41 42 44 42 48 55 60 62
6 6 6 6 6 6 6 7 7 8 10 11 13 18 18 21 26 30 32 30 32 32 36 38 42 41 43 49 55 52 50 51 56 57 59 57 51 66
14 14 14 15 16 17 18 20 22 22 24 25 26 27 30 34 35 38 37 40 41 44 47 49 51 54 58 64 71 70 68 70 66 62 57 70 72 69
27 28 28 28 28 29 29 31 35 37 39 39 39 39 43 46 50 52 54 54 56 59 58 61 64 67 72 75 79 83 79 79 75 75 80 82 75 68
39 39 39 39 40 41 42 43 45 48 52 52 54 56 57 59 62 63 66 70 74 74 73 72 73 76 80 83 92 93 91 90 82 79 74 80 79 71
49 50 49 49 51 51 51 52 53 56 58 59 62 65 69 71 72 74 75 78 83 82 82 77 82 84 89 97 91 93 85 80 77 75 73 79 81 67
54 57 58 59 60 60 61 62 65 65 64 67 70 72 74 76 79 80 81 83 87 86 86 81 81 82 90 105 91 81 81 78 71 69 67 72 81 73
59 64 69 70 70 71 73 74 76 76 77 76 77 77 78 79 82 84 83 86 87 87 87 83 82 82 88 94 83 67 70 76 75 75 73 71 68 65
64 64 66 68 71 73 76 78 79 80 80 81 83 82 80 77 79 78 78 79 79 82 87 89 85 74 70 71 84 90 82 64 63 67 66 62 63 67
63 65 66 67 68 70 71 73 74 74 71 70 71 72 75 77 79 79 78 76 75 72 75 73 68 66 65 70 79 79 74 62 52 52 50 54 60 47
55 55 56 56 55 55 56 58 60 61 60 61 62 63 64 67 69 72 74 73 74 71 66 64 60 60 61 61 63 64 60 55 49 48 46 46 52 50
Wind_Direction_850mb
227 225 239 261 223 219 249 287 248 206 193 197 197 198 204 207 217 207 215 233 245 229 230 256 220 235 231 238 221 225 232 243 256 263 267 265 264 264
238 239 243 254 252 269 264 267 283 304 217 195 189 196 205 212 225 218 215 218 222 219 235 236 224 227 224 226 236 242 257 265 270 269 266 264 263 263
230 238 241 237 241 255 234 253 259 288 268 215 200 197 207 218 220 224 223 226 231 238 240 236 240 232 237 253 264 269 269 267 267 266 267 263 260 260
224 235 244 232 220 224 221 220 233 251 275 239 203 200 206 210 217 219 221 227 233 234 236 237 241 244 253 259 263 263 264 265 262 261 258 260 263 265
230 240 242 243 234 217 219 225 263 231 247 254 261 230 215 208 214 217 222 225 229 232 241 246 248 250 252 255 255 259 258 252 251 253 256 259 262 263
230 231 245 241 256 241 234 222 243 247 238 227 241 229 222 220 222 223 228 231 234 236 239 244 247 243 245 244 242 242 249 254 258 260 263 262 264 267
212 221 220 211 217 221 220 221 225 231 228 230 225 226 226 225 223 226 224 225 229 229 226 228 235 233 235 242 247 250 257 261 263 265 266 270 272 273
175 181 227 224 196 190 198 195 193 206 206 215 215 221 228 226 219 218 212 201 198 212 210 220 230 237 240 243 250 260 263 266 269 271 273 274 275 275
100 110 108 102 103 113 132 139 164 164 163 170 178 182 191 187 183 185 188 193 196 195 212 226 231 245 255 264 269 270 271 273 274 276 277 277 277 275
90 97 110 115 116 118 121 128 142 135 141 143 141 157 151 159 164 173 190 197 208 219 227 247 249 251 252 258 262 262 262 266 271 274 275 274 268 269
88 93 92 92 91 101 105 107 120 127 143 140 135 136 130 156 179 192 211 222 226 231 233 236 249 252 249 255 262 263 264 264 271 275 274 267 273 281
94 94 101 102 104 109 118 127 137 145 156 156 146 179 186 199 212 219 221 227 241 251 245 243 249 263 276 268 249 234 244 271 272 270 269 275 281 283
98 98 99 109 116 132 146 155 166 170 179 186 200 204 212 216 224 230 238 237 243 247 253 253 260 263 258 261 259 264 274 280 277 275 278 280 284 285
355 351 346 334 324 307 294 288 283 272 255 251 244 239 240 242 242 241 245 250 255 260 261 263 266 273 272 275 274 278 280 279 280 283 284 284 279 287
313 305 299 297 295 293 290 286 283 279 277 275 273 272 270 268 270 272 271 268 267 267 268 273 275 276 276 278 280 285 289 287 287 288 285 288 288 289
303 301 300 298 294 292 290 291 292 291 289 288 287 282 277 275 275 274 274 273 272 272 273 275 277 277 278 279 279 280 283 280 291 291 291 287 286 286
292 291 290 290 289 289 290 290 289 287 287 288 284 282 278 275 273 273 273 273 272 273 274 275 275 276 277 277 275 279 281 283 291 291 285 285 283 285
289 289 289 290 291 292 291 289 285 284 284 283 280 278 277 276 275 273 272 270 271 272 273 273 275 277 277 275 274 279 279 284 290 289 285 283 284 286
287 289 289 291 292 290 288 287 285 285 283 280 280 280 279 278 277 276 275 274 273 273 273 272 270 271 272 273 282 281 284 287 286 283 282 280 284 290
286 288 289 291 290 289 289 289 288 287 286 286 284 283 282 282 282 281 280 279 279 279 278 274 270 268 268 276 280 273 274 280 283 284 283 285 285 286
283 282 282 283 285 288 289 289 290 289 290 290 289 289 288 287 285 283 282 281 282 281 280 280 282 284 278 273 270 274 278 277 275 275 279 281 284 286
280 281 281 281 282 283 284 285 287 289 290 292 293 294 295 295 293 292 292 290 289 287 285 286 284 280 273 269 274 280 283 285 276 271 263 263 269 271
290 290 289 288 287 286 285 285 285 286 286 286 285 281 280 282 284 286 286 286 288 289 291 291 288 283 278 275 276 279 281 284 281 277 271 272 276 277